Location: Newark
(50.0306°N, 2.3272°E)
Time: 20:20:39
(UTC+00:00)

Vanguard 1 - Pass Details

Date: 14 December 2019
Orbit: 650 x 3833 km, 34.2° (Epoch: 28 January)

Event Time Altitude Azimuth Distance (km) Brightness Sun altitude
Exits shadow 00:02:24 13° 117° (ESE) 6,628 14.1 -62.9°
Drops below altitude 10° 00:08:03 10° 103° (ESE) 6,934 14.3 -62.8°
Sets 00:17:45 0° 83° (E) 7,760 14.8 -62.4°
